Rochelle, IL

12:57 PM CST on January 22, 2018 (GMT -0600)
Rochelle

Weather History for KRPJ - March, 2014

Change the Weather History Date:

Wednesday, March 19, 2014

  Actual Average (KRFD) Record (KRFD)
Temperature  
Mean Temperature 36 °F -  
Max Temperature 40 °F 45 °F 78 °F (1921)
Min Temperature 32 °F 27 °F -9 °F (1923)
Degree Days  
Heating Degree Days 30    
Moisture  
Dew Point 34 °F    
Average Humidity 88    
Maximum Humidity 97    
Minimum Humidity 72    
Precipitation  
Precipitation 0.10 in - - ()
Sea Level Pressure  
Sea Level Pressure 29.75 in    
Wind  
Wind Speed 11 mph (West)    
Max Wind Speed 25 mph    
Max Gust Speed 32 mph    
Visibility 6 miles    
Events Rain    
Averages and records for this station are not official NWS values.
T = Trace of Precipitation, MM = Missing Value Source: NWS Daily Summary

Daily Weather History Graph

Daily Weather History Graph

Search for Another Location

Airport or City:

Trip Planner

Search our weather history database for the weather conditions in past years. The results will help you decide how hot, cold, wet, or windy it might be!

Date:

Astronomy

Mar. 19, 2014 Rise Set
Actual Time 7:01 AM CDT 7:07 PM CDT
Civil Twilight 6:33 AM CDT 7:35 PM CDT
Nautical Twilight 6:01 AM CDT 8:07 PM CDT
Astronomical Twilight 5:27 AM CDT 8:41 PM CDT
Moon 10:29 PM CDT (3/19) 8:24 AM CDT (3/19)
Length of Visible Light 13h 01m
Length of Day
12h 06m
Waning Gibbous, 91% of the Moon is Illuminated
Mar 19
Waning Gibbous
Mar 23
Last Quarter
Mar 30
New
Apr 7
First Quarter
Apr 15
Full

Hourly Weather History & Observations

Time (CDT) Temp. Windchill Dew Point Humidity Pressure Visibility Wind Dir Wind Speed Gust Speed Precip Events Conditions
12:15 AM 39.4 °F 33.2 °F 36.5 °F 89% 29.64 in 7.0 mi SSE 9.2 mph - N/A   Overcast
12:35 AM 39.2 °F 33.6 °F 36.5 °F 90% 29.63 in 7.0 mi SSE 8.1 mph - N/A   Overcast
12:55 AM 39.0 °F 34.8 °F 36.5 °F 91% 29.63 in 5.0 mi South 5.8 mph - N/A Rain Rain
1:15 AM 38.7 °F 34.3 °F 36.3 °F 91% 29.62 in 5.0 mi SSE 5.8 mph - N/A   Drizzle
1:35 AM 38.3 °F 32.5 °F 36.5 °F 93% 29.62 in 4.0 mi SSE 8.1 mph - N/A Rain Rain
1:55 AM 38.7 °F 33.6 °F 36.9 °F 93% 29.62 in 3.0 mi SSE 6.9 mph - 0.02 in Rain Light Rain
2:15 AM 38.7 °F 32.9 °F 37.0 °F 94% 29.61 in 4.0 mi SSE 8.1 mph - N/A Rain Rain
2:35 AM 38.8 °F 33.2 °F 37.4 °F 95% 29.60 in 3.0 mi SSE 8.1 mph - 0.01 in Rain Light Rain
2:55 AM 38.7 °F 32.4 °F 37.4 °F 95% 29.59 in 2.5 mi SSE 9.2 mph - 0.02 in Rain Light Rain
3:15 AM 38.8 °F 33.8 °F 37.4 °F 95% 29.58 in 2.5 mi SSE 6.9 mph - N/A Rain Rain
3:35 AM 38.7 °F 33.6 °F 37.4 °F 95% 29.57 in 2.5 mi SE 6.9 mph - 0.01 in Rain Rain
3:55 AM 38.8 °F 34.6 °F 37.6 °F 95% 29.56 in 2.5 mi SSE 5.8 mph - 0.01 in   Light Drizzle
4:15 AM 38.7 °F 34.3 °F 37.4 °F 95% 29.56 in 2.0 mi SSE 5.8 mph - N/A   Light Drizzle
4:35 AM 38.3 °F 33.9 °F 36.9 °F 95% 29.55 in 1.5 mi SSE 5.8 mph - N/A   Overcast
4:55 AM 38.3 °F 33.2 °F 37.0 °F 95% 29.55 in 1.8 mi SSE 6.9 mph - N/A   Overcast
5:15 AM 38.7 °F 32.9 °F 37.6 °F 96% 29.55 in 1.5 mi SSE 8.1 mph - N/A   Overcast
5:35 AM 38.5 °F 33.4 °F 37.4 °F 96% 29.56 in 1.2 mi SSE 6.9 mph - N/A   Overcast
5:55 AM 38.3 °F 33.2 °F 37.4 °F 97% 29.56 in 1.0 mi SSE 6.9 mph - N/A   Overcast
6:15 AM 37.9 °F 33.5 °F 36.9 °F 96% 29.56 in 0.8 mi SSE 5.8 mph - N/A   Overcast
6:35 AM 37.9 °F 35.5 °F 36.9 °F 96% 29.57 in 1.2 mi SW 3.5 mph - N/A   Overcast
6:55 AM 37.8 °F 34.2 °F 36.7 °F 96% 29.58 in 1.0 mi SW 4.6 mph - N/A   Overcast
7:15 AM 37.8 °F - 36.7 °F 96% 29.58 in 0.8 mi Calm Calm - 0.01 in Rain Rain
7:35 AM 37.4 °F 34.9 °F 36.5 °F 97% 29.59 in 0.5 mi SW 3.5 mph - 0.02 in   Drizzle
7:55 AM 38.3 °F 31.9 °F 37.4 °F 97% 29.59 in 1.2 mi West 9.2 mph - 0.02 in   Light Drizzle
8:15 AM 39.9 °F 33.9 °F 38.8 °F 96% 29.59 in 2.0 mi West 9.2 mph - 0.01 in Rain Rain
8:35 AM 39.6 °F 33.5 °F 38.5 °F 96% 29.59 in 1.2 mi West 9.2 mph - 0.02 in Rain Light Rain
8:55 AM 39.7 °F 33.7 °F 38.7 °F 96% 29.60 in 1.2 mi West 9.2 mph - 0.02 in   Drizzle
9:15 AM 39.9 °F 32.5 °F 38.7 °F 95% 29.61 in 1.2 mi WNW 12.7 mph - N/A   Drizzle
9:35 AM 39.9 °F 31.1 °F 38.8 °F 96% 29.63 in 2.5 mi WNW 17.3 mph - 0.01 in   Light Drizzle
9:55 AM 38.7 °F 29.5 °F 37.6 °F 96% 29.65 in 4.0 mi WNW 17.3 mph 25.3 mph 0.01 in   Overcast
10:15 AM 37.6 °F 28.8 °F 36.5 °F 96% 29.66 in 2.0 mi NW 15.0 mph 20.7 mph N/A   Light Drizzle
10:35 AM 36.9 °F 29.1 °F 35.8 °F 96% 29.67 in 2.0 mi NW 11.5 mph 17.3 mph N/A   Light Drizzle
10:55 AM 36.7 °F 28.4 °F 35.8 °F 97% 29.69 in 5.0 mi WNW 12.7 mph 21.9 mph N/A   Overcast
11:15 AM 36.9 °F 27.1 °F 36.0 °F 97% 29.69 in 5.0 mi NW 17.3 mph - N/A   Overcast
11:35 AM 36.9 °F 27.8 °F 35.8 °F 96% 29.72 in 7.0 mi WNW 15.0 mph 20.7 mph N/A   Overcast
11:55 AM 36.5 °F 26.7 °F 35.2 °F 95% 29.73 in 7.0 mi WNW 17.3 mph 25.3 mph N/A   Overcast
12:15 PM 36.5 °F 26.3 °F 34.7 °F 93% 29.74 in 7.0 mi WNW 18.4 mph 24.2 mph N/A   Overcast
12:35 PM 37.0 °F 26.4 °F 35.2 °F 93% 29.74 in 7.0 mi NW 20.7 mph - N/A   Overcast
12:55 PM 37.4 °F 27.2 °F 34.5 °F 89% 29.76 in 10.0 mi WNW 19.6 mph 28.8 mph N/A   Overcast
1:15 PM 37.6 °F 26.6 °F 34.3 °F 88% 29.78 in 10.0 mi WNW 23.0 mph 28.8 mph N/A   Overcast
1:35 PM 38.3 °F 29.7 °F 34.0 °F 84% 29.78 in 10.0 mi WNW 15.0 mph 27.6 mph N/A   Overcast
1:55 PM 37.9 °F 27.6 °F 33.8 °F 85% 29.79 in 10.0 mi WNW 20.7 mph - N/A   Overcast
2:15 PM 38.3 °F 29.0 °F 33.8 °F 84% 29.79 in 10.0 mi WNW 17.3 mph 23.0 mph N/A   Overcast
2:35 PM 38.3 °F 29.7 °F 34.0 °F 84% 29.80 in 7.0 mi West 15.0 mph 25.3 mph N/A   Overcast
2:55 PM 38.3 °F 29.0 °F 34.0 °F 84% 29.81 in 7.0 mi West 17.3 mph 26.5 mph N/A   Overcast
3:15 PM 37.2 °F 27.0 °F 33.4 °F 86% 29.82 in 4.0 mi West 19.6 mph 26.5 mph N/A   Overcast
3:35 PM 36.9 °F 25.6 °F 33.3 °F 87% 29.83 in 5.0 mi West 23.0 mph - N/A   Overcast
3:55 PM 36.5 °F 24.7 °F 32.2 °F 84% 29.85 in 5.0 mi West 25.3 mph 32.2 mph N/A   Overcast
4:15 PM 35.8 °F 25.1 °F 32.0 °F 86% 29.86 in 5.0 mi West 19.6 mph 28.8 mph N/A   Overcast
4:35 PM 35.6 °F 24.5 °F 32.0 °F 87% 29.87 in 5.0 mi West 20.7 mph 29.9 mph N/A   Overcast
4:55 PM 35.6 °F 25.2 °F 31.8 °F 86% 29.88 in 5.0 mi West 18.4 mph 24.2 mph N/A   Overcast
5:15 PM 35.6 °F 24.2 °F 31.3 °F 84% 29.89 in 7.0 mi West 21.9 mph - N/A   Overcast
5:35 PM 35.6 °F 25.2 °F 31.1 °F 84% 29.89 in 7.0 mi West 18.4 mph 25.3 mph N/A   Overcast
5:55 PM 35.2 °F 23.2 °F 30.2 °F 82% 29.91 in 7.0 mi West 24.2 mph 28.8 mph N/A   Overcast
6:15 PM 34.9 °F 23.9 °F 30.0 °F 82% 29.92 in 10.0 mi West 19.6 mph 24.2 mph N/A   Overcast
6:35 PM 34.7 °F 24.7 °F 29.3 °F 81% 29.93 in 10.0 mi West 16.1 mph 24.2 mph N/A   Overcast
6:55 PM 34.3 °F 23.2 °F 28.9 °F 81% 29.94 in 10.0 mi WNW 19.6 mph - N/A   Overcast
7:15 PM 34.3 °F 23.5 °F 27.5 °F 76% 29.94 in 10.0 mi West 18.4 mph 28.8 mph N/A   Overcast
7:35 PM 34.0 °F 21.8 °F 28.4 °F 80% 29.95 in 10.0 mi West 23.0 mph 27.6 mph N/A   Overcast
7:55 PM 33.8 °F 22.5 °F 27.5 °F 78% 29.96 in 10.0 mi West 19.6 mph 25.3 mph N/A   Overcast
8:15 PM 33.3 °F 21.2 °F 27.9 °F 81% 29.97 in 10.0 mi West 21.9 mph 27.6 mph N/A   Overcast
8:35 PM 33.3 °F 21.2 °F 26.1 °F 75% 29.98 in 10.0 mi WNW 21.9 mph 29.9 mph N/A   Overcast
8:55 PM 33.1 °F 24.9 °F 27.3 °F 79% 29.99 in 10.0 mi WNW 10.4 mph - N/A   Overcast
9:15 PM 32.9 °F 21.0 °F 26.6 °F 78% 29.99 in 10.0 mi WNW 20.7 mph 26.5 mph N/A   Overcast
9:35 PM 33.3 °F 22.8 °F 25.3 °F 73% 30.00 in 10.0 mi WNW 16.1 mph 25.3 mph N/A   Overcast
9:55 PM 33.4 °F 23.1 °F 25.2 °F 72% 30.00 in 10.0 mi WNW 16.1 mph 24.2 mph N/A   Overcast
10:15 PM 33.4 °F 24.3 °F 25.7 °F 73% 30.00 in 10.0 mi WNW 12.7 mph 19.6 mph N/A   Overcast
10:35 PM 33.8 °F 23.9 °F 25.5 °F 72% 30.01 in 10.0 mi WNW 15.0 mph 21.9 mph N/A   Overcast
10:55 PM 33.3 °F 25.1 °F 26.4 °F 76% 30.01 in 10.0 mi West 10.4 mph - N/A   Overcast
11:15 PM 33.3 °F 25.7 °F 27.1 °F 78% 30.01 in 10.0 mi West 9.2 mph - N/A   Overcast
11:35 PM 33.1 °F 24.9 °F 27.3 °F 79% 30.01 in 10.0 mi West 10.4 mph - N/A   Overcast
11:55 PM 33.1 °F 25.5 °F 27.5 °F 80% 30.01 in 10.0 mi West 9.2 mph - N/A   Overcast